Time,TemperatureF,DewpointF,PressureIn,WindDirection,WindDirectionDegrees,WindSpeedMPH,WindSpeedGustMPH,Humidity,HourlyPrecipIn,Conditions,Clouds,dailyrainin,SoftwareType,DateUTC
2013-07-01 00:03:00,67.8,64.4,29.75,NNE,23,0.0,4.6,89,0.00,,,0.00,WUHU216HW,2013-07-01 04:03:00,
2013-07-01 00:08:00,67.8,64.4,29.75,North,0,1.1,1.5,89,0.00,,,0.00,WUHU216HW,2013-07-01 04:08:00,
2013-07-01 00:13:00,67.8,64.4,29.75,North,0,0.0,1.1,89,0.00,,,0.00,WUHU216HW,2013-07-01 04:13:00,
2013-07-01 00:18:00,67.8,64.4,29.76,NNW,338,0.0,1.1,89,0.00,,,0.00,WUHU216HW,2013-07-01 04:18:00,
2013-07-01 00:23:00,67.8,64.4,29.76,NNW,338,0.0,2.0,89,0.00,,,0.00,WUHU216HW,2013-07-01 04:23:00,
2013-07-01 00:28:00,67.8,64.4,29.76,NNW,338,0.0,2.0,89,0.00,,,0.00,WUHU216HW,2013-07-01 04:28:00,
2013-07-01 00:33:00,67.8,64.4,29.76,NNW,338,0.0,1.1,89,0.00,,,0.00,WUHU216HW,2013-07-01 04:33:00,
2013-07-01 00:43:00,67.8,64.4,29.76,NW,315,5.1,5.1,89,0.00,,,0.00,WUHU216HW,2013-07-01 04:43:00,
2013-07-01 00:48:00,67.8,64.4,29.76,NNW,338,0.0,5.1,89,0.00,,,0.00,WUHU216HW,2013-07-01 04:48:00,
2013-07-01 00:53:00,67.8,64.4,29.75,NNW,338,2.2,3.3,89,0.00,,,0.00,WUHU216HW,2013-07-01 04:53:00,
2013-07-01 00:58:00,67.8,64.4,29.75,North,0,4.0,4.0,89,0.00,,,0.00,WUHU216HW,2013-07-01 04:58:00,
2013-07-01 01:03:00,67.8,64.4,29.75,North,0,0.0,4.6,89,0.00,,,0.00,WUHU216HW,2013-07-01 05:03:00,
2013-07-01 01:08:00,67.8,64.4,29.75,North,0,4.9,4.9,89,0.00,,,0.00,WUHU216HW,2013-07-01 05:08:00,
2013-07-01 01:13:00,67.8,64.4,29.75,NNE,23,1.1,4.9,89,0.00,,,0.00,WUHU216HW,2013-07-01 05:13:00,
2013-07-01 01:18:00,67.6,64.2,29.75,ENE,68,4.6,6.4,89,0.00,,,0.00,WUHU216HW,2013-07-01 05:18:00,
2013-07-01 01:23:00,67.6,63.9,29.75,NNE,23,5.3,6.4,88,0.00,,,0.00,WUHU216HW,2013-07-01 05:23:00,
2013-07-01 01:29:00,67.6,63.9,29.75,North,0,2.9,5.3,88,0.00,,,0.00,WUHU216HW,2013-07-01 05:29:00,
2013-07-01 01:34:00,67.6,63.9,29.75,East,90,0.0,5.5,88,0.00,,,0.00,WUHU216HW,2013-07-01 05:34:00,
2013-07-01 01:39:00,67.6,63.9,29.75,North,0,1.3,5.5,88,0.00,,,0.00,WUHU216HW,2013-07-01 05:39:00,
2013-07-01 01:44:00,67.4,63.7,29.75,NNE,23,1.3,2.4,88,0.00,,,0.00,WUHU216HW,2013-07-01 05:44:00,
2013-07-01 01:49:00,67.2,63.5,29.75,North,0,3.1,3.1,88,0.00,,,0.00,WUHU216HW,2013-07-01 05:49:00,
2013-07-01 01:54:00,67.2,63.5,29.75,NNW,338,1.3,3.1,88,0.00,,,0.00,WUHU216HW,2013-07-01 05:54:00,
2013-07-01 01:59:00,67.2,63.5,29.75,NW,315,0.0,3.1,88,0.00,,,0.00,WUHU216HW,2013-07-01 05:59:00,
2013-07-01 02:04:00,67.2,63.5,29.75,NE,45,0.0,0.0,88,0.00,,,0.00,WUHU216HW,2013-07-01 06:04:00,
2013-07-01 02:09:00,67.2,63.8,29.75,NNE,23,0.0,2.0,89,0.00,,,0.00,WUHU216HW,2013-07-01 06:09:00,
2013-07-01 02:14:00,67.2,63.8,29.75,NNE,23,0.0,2.0,89,0.00,,,0.00,WUHU216HW,2013-07-01 06:14:00,
2013-07-01 02:19:00,67.2,63.8,29.75,NNW,338,0.0,0.4,89,0.00,,,0.00,WUHU216HW,2013-07-01 06:19:00,
2013-07-01 02:24:00,67.2,63.8,29.75,North,0,0.0,0.4,89,0.00,,,0.00,WUHU216HW,2013-07-01 06:24:00,
2013-07-01 02:29:00,67.1,63.7,29.75,NNE,23,0.0,0.0,89,0.00,,,0.00,WUHU216HW,2013-07-01 06:29:00,
2013-07-01 02:34:00,67.1,63.7,29.75,West,270,0.0,7.6,89,0.00,,,0.00,WUHU216HW,2013-07-01 06:34:00,
2013-07-01 02:39:00,67.1,63.3,29.75,NNE,23,0.0,7.6,88,0.00,,,0.00,WUHU216HW,2013-07-01 06:39:00,
2013-07-01 02:44:00,67.1,63.3,29.75,NNW,338,0.8,1.1,88,0.00,,,0.00,WUHU216HW,2013-07-01 06:44:00,
2013-07-01 02:49:00,67.1,63.3,29.75,ENE,68,0.0,0.8,88,0.00,,,0.00,WUHU216HW,2013-07-01 06:49:00,
2013-07-01 02:54:00,66.9,63.2,29.75,NW,315,0.0,0.8,88,0.00,,,0.00,WUHU216HW,2013-07-01 06:54:00,
2013-07-01 02:59:00,66.9,63.2,29.75,North,0,3.8,3.8,88,0.00,,,0.00,WUHU216HW,2013-07-01 06:59:00,
2013-07-01 03:04:00,66.9,63.2,29.75,North,0,1.3,3.8,88,0.00,,,0.00,WUHU216HW,2013-07-01 07:04:00,
2013-07-01 03:09:00,66.9,63.2,29.74,NNW,338,0.8,4.0,88,0.00,,,0.00,WUHU216HW,2013-07-01 07:09:00,
2013-07-01 03:14:00,66.9,63.2,29.75,West,270,4.4,4.4,88,0.00,,,0.00,WUHU216HW,2013-07-01 07:14:00,
2013-07-01 03:19:00,66.9,63.2,29.74,NNW,338,2.9,4.4,88,0.00,,,0.00,WUHU216HW,2013-07-01 07:19:00,
2013-07-01 03:24:00,66.9,63.2,29.74,North,0,4.0,4.4,88,0.00,,,0.00,WUHU216HW,2013-07-01 07:24:00,
2013-07-01 03:29:00,66.7,63.0,29.74,NNW,338,2.6,4.0,88,0.00,,,0.00,WUHU216HW,2013-07-01 07:29:00,
2013-07-01 03:34:00,66.7,63.0,29.74,NNE,23,3.3,4.0,88,0.00,,,0.00,WUHU216HW,2013-07-01 07:34:00,
2013-07-01 03:44:00,66.7,63.0,29.74,ESE,113,0.6,2.9,88,0.00,,,0.00,WUHU216HW,2013-07-01 07:44:00,
2013-07-01 03:49:00,66.7,63.0,29.74,North,0,2.9,2.9,88,0.00,,,0.00,WUHU216HW,2013-07-01 07:49:00,
2013-07-01 03:54:00,66.7,63.0,29.75,NE,45,2.6,2.9,88,0.00,,,0.00,WUHU216HW,2013-07-01 07:54:00,
2013-07-01 03:59:00,66.7,63.0,29.75,NE,45,3.5,3.8,88,0.00,,,0.00,WUHU216HW,2013-07-01 07:59:00,
2013-07-01 04:04:00,66.7,63.0,29.75,ENE,68,1.3,3.8,88,0.00,,,0.00,WUHU216HW,2013-07-01 08:04:00,
2013-07-01 04:09:00,66.7,63.0,29.75,NE,45,6.2,6.2,88,0.00,,,0.00,WUHU216HW,2013-07-01 08:09:00,
2013-07-01 04:14:00,66.7,63.0,29.75,NNE,23,0.8,6.2,88,0.00,,,0.00,WUHU216HW,2013-07-01 08:14:00,
2013-07-01 04:19:00,66.7,63.0,29.75,ENE,68,0.0,6.2,88,0.00,,,0.00,WUHU216HW,2013-07-01 08:19:00,
2013-07-01 04:24:00,66.7,63.0,29.75,SSE,158,0.6,2.4,88,0.00,,,0.00,WUHU216HW,2013-07-01 08:24:00,
2013-07-01 04:29:00,66.7,63.0,29.75,ENE,68,2.4,2.4,88,0.00,,,0.00,WUHU216HW,2013-07-01 08:29:00,
2013-07-01 04:34:00,66.7,63.0,29.75,SSE,158,3.3,3.3,88,0.00,,,0.00,WUHU216HW,2013-07-01 08:34:00,
2013-07-01 04:39:00,66.5,62.5,29.75,East,90,0.0,4.6,87,0.00,,,0.00,WUHU216HW,2013-07-01 08:39:00,
2013-07-01 04:44:00,66.5,62.5,29.75,NNW,338,5.8,5.8,87,0.00,,,0.00,WUHU216HW,2013-07-01 08:44:00,
2013-07-01 04:49:00,66.5,62.5,29.75,ENE,68,0.0,5.8,87,0.00,,,0.00,WUHU216HW,2013-07-01 08:49:00,
2013-07-01 04:54:00,66.3,62.3,29.74,North,0,6.4,6.4,87,0.00,,,0.00,WUHU216HW,2013-07-01 08:54:00,
2013-07-01 04:59:00,66.3,62.3,29.75,NW,315,0.0,6.4,87,0.00,,,0.00,WUHU216HW,2013-07-01 08:59:00,
2013-07-01 05:04:00,66.3,62.3,29.75,NNE,23,0.0,6.4,87,0.00,,,0.00,WUHU216HW,2013-07-01 09:04:00,
2013-07-01 05:09:00,66.2,62.1,29.75,NE,45,3.3,3.3,87,0.00,,,0.00,WUHU216HW,2013-07-01 09:09:00,
2013-07-01 05:14:00,66.0,61.9,29.75,ENE,68,0.0,3.3,87,0.00,,,0.00,WUHU216HW,2013-07-01 09:14:00,
2013-07-01 05:19:00,66.0,61.9,29.75,NE,45,0.2,3.3,87,0.00,,,0.00,WUHU216HW,2013-07-01 09:19:00,
2013-07-01 05:24:00,66.0,61.9,29.75,NW,315,0.0,2.0,87,0.00,,,0.00,WUHU216HW,2013-07-01 09:24:00,
2013-07-01 05:29:00,66.0,61.9,29.75,SE,135,1.5,2.0,87,0.00,,,0.00,WUHU216HW,2013-07-01 09:29:00,
2013-07-01 05:34:00,66.0,61.9,29.75,SE,135,1.1,1.5,87,0.00,,,0.00,WUHU216HW,2013-07-01 09:34:00,
2013-07-01 05:39:00,66.0,61.9,29.75,NNE,23,0.0,6.7,87,0.00,,,0.00,WUHU216HW,2013-07-01 09:39:00,
2013-07-01 05:44:00,66.0,61.9,29.75,East,90,0.0,6.7,87,0.00,,,0.00,WUHU216HW,2013-07-01 09:44:00,
2013-07-01 05:49:00,66.0,61.9,29.75,NE,45,0.0,1.7,87,0.00,,,0.00,WUHU216HW,2013-07-01 09:49:00,
2013-07-01 05:54:00,66.0,61.9,29.75,NE,45,0.0,5.8,87,0.00,,,0.00,WUHU216HW,2013-07-01 09:54:00,
2013-07-01 05:59:00,65.8,61.8,29.75,NE,45,0.0,5.8,87,0.00,,,0.00,WUHU216HW,2013-07-01 09:59:00,
2013-07-01 06:04:00,65.8,61.5,29.75,NE,45,1.3,4.0,86,0.00,,,0.00,WUHU216HW,2013-07-01 10:04:00,
2013-07-01 06:09:00,65.8,61.5,29.75,West,270,1.7,6.0,86,0.00,,,0.00,WUHU216HW,2013-07-01 10:09:00,
2013-07-01 06:14:00,65.8,61.5,29.75,NE,45,0.0,6.0,86,0.00,,,0.00,WUHU216HW,2013-07-01 10:14:00,
2013-07-01 06:19:00,65.8,61.5,29.75,NNE,23,4.2,4.2,86,0.00,,,0.00,WUHU216HW,2013-07-01 10:19:00,
2013-07-01 06:24:00,65.6,61.6,29.75,SSE,158,2.0,4.2,87,0.00,,,0.00,WUHU216HW,2013-07-01 10:24:00,
2013-07-01 06:29:00,65.4,61.4,29.76,NE,45,0.0,2.0,87,0.00,,,0.00,WUHU216HW,2013-07-01 10:29:00,
2013-07-01 06:34:00,65.4,61.4,29.77,NE,45,0.0,2.0,87,0.00,,,0.00,WUHU216HW,2013-07-01 10:34:00,
2013-07-01 06:39:00,65.4,61.4,29.77,North,0,0.0,0.6,87,0.00,,,0.00,WUHU216HW,2013-07-01 10:39:00,
2013-07-01 06:44:00,65.4,61.4,29.77,NNE,23,0.6,0.6,87,0.00,,,0.00,WUHU216HW,2013-07-01 10:44:00,
2013-07-01 06:49:00,65.4,61.4,29.77,NNE,23,0.0,0.6,87,0.00,,,0.00,WUHU216HW,2013-07-01 10:49:00,
2013-07-01 06:54:00,65.6,61.6,29.77,North,0,6.0,6.0,87,0.00,,,0.00,WUHU216HW,2013-07-01 10:54:00,
2013-07-01 06:59:00,65.6,61.6,29.77,East,90,1.7,6.0,87,0.00,,,0.00,WUHU216HW,2013-07-01 10:59:00,
2013-07-01 07:04:00,65.6,61.6,29.77,NE,45,0.0,6.0,87,0.00,,,0.00,WUHU216HW,2013-07-01 11:04:00,
2013-07-01 07:09:00,65.8,61.8,29.77,NNE,23,2.9,4.4,87,0.00,,,0.00,WUHU216HW,2013-07-01 11:09:00,
2013-07-01 07:14:00,65.8,61.8,29.77,NNW,338,6.2,6.2,87,0.00,,,0.00,WUHU216HW,2013-07-01 11:14:00,
2013-07-01 07:19:00,65.8,61.8,29.77,South,180,2.4,6.2,87,0.00,,,0.00,WUHU216HW,2013-07-01 11:19:00,
2013-07-01 07:24:00,65.8,61.8,29.77,ESE,113,0.0,6.2,87,0.00,,,0.00,WUHU216HW,2013-07-01 11:24:00,
2013-07-01 07:29:00,65.8,61.8,29.77,ENE,68,0.0,0.0,87,0.00,,,0.00,WUHU216HW,2013-07-01 11:29:00,
2013-07-01 07:34:00,65.8,61.8,29.77,SSE,158,3.3,3.3,87,0.00,,,0.00,WUHU216HW,2013-07-01 11:34:00,
2013-07-01 07:39:00,66.0,61.9,29.77,ENE,68,0.0,3.3,87,0.00,,,0.00,WUHU216HW,2013-07-01 11:39:00,
2013-07-01 07:44:00,66.0,61.9,29.77,SSE,158,0.8,4.9,87,0.00,,,0.00,WUHU216HW,2013-07-01 11:44:00,
2013-07-01 07:49:00,66.0,61.9,29.77,WSW,248,0.0,4.9,87,0.00,,,0.00,WUHU216HW,2013-07-01 11:49:00,
2013-07-01 07:54:00,66.0,61.9,29.77,ESE,113,0.0,3.5,87,0.00,,,0.00,WUHU216HW,2013-07-01 11:54:00,
2013-07-01 07:59:00,66.2,62.1,29.77,NW,315,6.7,6.7,87,0.00,,,0.00,WUHU216HW,2013-07-01 11:59:00,
2013-07-01 08:04:00,66.2,62.1,29.77,NNW,338,5.5,6.7,87,0.00,,,0.00,WUHU216HW,2013-07-01 12:04:00,
2013-07-01 08:09:00,66.3,62.3,29.77,NNW,338,0.6,6.7,87,0.00,,,0.00,WUHU216HW,2013-07-01 12:09:00,
2013-07-01 08:14:00,66.3,62.3,29.77,North,0,0.0,6.0,87,0.00,,,0.00,WUHU216HW,2013-07-01 12:14:00,
2013-07-01 08:19:00,66.5,62.5,29.78,North,0,0.0,6.0,87,0.00,,,0.00,WUHU216HW,2013-07-01 12:19:00,
2013-07-01 08:24:00,66.3,62.3,29.78,North,0,4.6,5.5,87,0.00,,,0.00,WUHU216HW,2013-07-01 12:24:00,
2013-07-01 08:29:00,66.5,62.5,29.78,NE,45,0.0,5.5,87,0.00,,,0.00,WUHU216HW,2013-07-01 12:29:00,
2013-07-01 08:34:00,66.5,62.5,29.78,ENE,68,0.0,5.1,87,0.00,,,0.00,WUHU216HW,2013-07-01 12:34:00,
2013-07-01 08:39:00,66.5,62.2,29.78,NW,315,0.8,6.4,86,0.00,,,0.00,WUHU216HW,2013-07-01 12:39:00,
2013-07-01 08:44:00,66.7,62.7,29.78,North,0,0.0,6.4,87,0.00,,,0.00,WUHU216HW,2013-07-01 12:44:00,
2013-07-01 08:49:00,66.7,62.7,29.79,ENE,68,2.9,2.9,87,0.00,,,0.00,WUHU216HW,2013-07-01 12:49:00,
2013-07-01 08:54:00,66.7,62.7,29.79,ENE,68,0.0,2.9,87,0.00,,,0.00,WUHU216HW,2013-07-01 12:54:00,
2013-07-01 08:59:00,66.9,62.8,29.78,ENE,68,1.7,1.7,87,0.00,,,0.00,WUHU216HW,2013-07-01 12:59:00,
2013-07-01 09:04:00,67.1,62.7,29.78,ENE,68,4.9,4.9,86,0.00,,,0.00,WUHU216HW,2013-07-01 13:04:00,
2013-07-01 09:09:00,67.6,63.6,29.78,North,0,4.2,4.9,87,0.00,,,0.00,WUHU216HW,2013-07-01 13:09:00,
2013-07-01 09:14:00,67.6,63.2,29.78,SE,135,6.0,8.7,86,0.00,,,0.00,WUHU216HW,2013-07-01 13:14:00,
2013-07-01 09:19:00,67.6,63.2,29.78,East,90,2.6,8.7,86,0.00,,,0.00,WUHU216HW,2013-07-01 13:19:00,
2013-07-01 09:24:00,67.8,63.4,29.78,NNW,338,5.1,6.0,86,0.00,,,0.00,WUHU216HW,2013-07-01 13:24:00,
2013-07-01 09:29:00,67.8,63.4,29.78,SE,135,1.3,5.3,86,0.00,,,0.00,WUHU216HW,2013-07-01 13:29:00,
2013-07-01 09:34:00,68.1,63.8,29.79,ESE,113,0.0,5.1,86,0.00,,,0.00,WUHU216HW,2013-07-01 13:34:00,
2013-07-01 09:39:00,68.1,63.8,29.79,WSW,248,1.7,1.7,86,0.00,,,0.00,WUHU216HW,2013-07-01 13:39:00,
2013-07-01 09:44:00,68.3,63.9,29.79,NW,315,2.9,3.1,86,0.00,,,0.00,WUHU216HW,2013-07-01 13:44:00,
2013-07-01 09:49:00,68.5,64.1,29.79,NNW,338,0.0,3.1,86,0.00,,,0.00,WUHU216HW,2013-07-01 13:49:00,
2013-07-01 09:54:00,68.5,64.1,29.79,North,0,0.0,2.9,86,0.00,,,0.00,WUHU216HW,2013-07-01 13:54:00,
2013-07-01 09:59:00,68.7,64.3,29.79,ESE,113,0.0,3.1,86,0.00,,,0.00,WUHU216HW,2013-07-01 13:59:00,
2013-07-01 10:04:00,68.7,64.3,29.79,SE,135,2.2,3.1,86,0.00,,,0.00,WUHU216HW,2013-07-01 14:04:00,
2013-07-01 10:09:00,68.7,64.0,29.79,ESE,113,0.0,2.2,85,0.00,,,0.00,WUHU216HW,2013-07-01 14:09:00,
2013-07-01 10:14:00,68.7,64.0,29.79,ESE,113,0.0,2.2,85,0.00,,,0.00,WUHU216HW,2013-07-01 14:14:00,
2013-07-01 10:19:00,68.7,64.0,29.79,ESE,113,0.0,3.8,85,0.00,,,0.00,WUHU216HW,2013-07-01 14:19:00,
2013-07-01 10:24:00,68.5,63.8,29.79,SE,135,0.0,3.8,85,0.00,,,0.00,WUHU216HW,2013-07-01 14:24:00,
2013-07-01 10:29:00,68.5,64.1,29.79,South,180,2.0,2.0,86,0.00,,,0.00,WUHU216HW,2013-07-01 14:29:00,
2013-07-01 10:34:00,68.3,63.9,29.80,SSE,158,0.0,2.0,86,0.00,,,0.00,WUHU216HW,2013-07-01 14:34:00,
2013-07-01 10:39:00,68.1,63.8,29.80,NE,45,0.0,2.0,86,0.00,,,0.00,WUHU216HW,2013-07-01 14:39:00,
2013-07-01 10:44:00,68.1,63.8,29.80,NE,45,0.0,0.0,86,0.00,,,0.00,WUHU216HW,2013-07-01 14:44:00,
2013-07-01 10:49:00,68.1,63.8,29.80,North,0,0.0,0.0,86,0.00,,,0.00,WUHU216HW,2013-07-01 14:49:00,
2013-07-01 10:54:00,68.0,63.9,29.80,North,0,0.0,0.0,87,0.00,,,0.00,WUHU216HW,2013-07-01 14:54:00,
2013-07-01 10:59:00,67.8,63.7,29.80,North,0,0.0,0.0,87,0.00,,,0.00,WUHU216HW,2013-07-01 14:59:00,
2013-07-01 11:04:00,67.8,63.7,29.80,North,0,0.0,0.0,87,0.00,,,0.00,WUHU216HW,2013-07-01 15:04:00,
2013-07-01 11:09:00,67.8,63.7,29.80,NNE,23,0.0,0.0,87,0.00,,,0.00,WUHU216HW,2013-07-01 15:09:00,
2013-07-01 11:14:00,67.6,63.6,29.80,North,0,0.0,0.0,87,0.00,,,0.00,WUHU216HW,2013-07-01 15:14:00,
2013-07-01 11:19:00,67.6,63.6,29.80,North,0,0.6,0.6,87,0.00,,,0.00,WUHU216HW,2013-07-01 15:19:00,
2013-07-01 11:24:00,67.8,64.1,29.81,North,0,0.0,0.6,88,0.00,,,0.00,WUHU216HW,2013-07-01 15:24:00,
2013-07-01 11:30:00,67.8,64.1,29.81,NE,45,0.6,2.6,88,0.00,,,0.00,WUHU216HW,2013-07-01 15:30:00,
2013-07-01 11:35:00,67.8,64.1,29.81,NE,45,1.3,3.1,88,0.00,,,0.00,WUHU216HW,2013-07-01 15:35:00,
2013-07-01 11:40:00,67.8,64.1,29.81,ENE,68,0.0,3.1,88,0.00,,,0.00,WUHU216HW,2013-07-01 15:40:00,
2013-07-01 11:45:00,68.0,64.6,29.81,ENE,68,0.0,1.3,89,0.00,,,0.00,WUHU216HW,2013-07-01 15:45:00,
2013-07-01 11:50:00,68.1,64.7,29.81,ENE,68,0.0,0.0,89,0.00,,,0.00,WUHU216HW,2013-07-01 15:50:00,
2013-07-01 11:55:00,68.1,64.7,29.80,NW,315,2.9,2.9,89,0.00,,,0.00,WUHU216HW,2013-07-01 15:55:00,
2013-07-01 12:00:00,68.1,64.7,29.80,NNW,338,2.9,3.3,89,0.00,,,0.00,WUHU216HW,2013-07-01 16:00:00,
2013-07-01 12:05:00,68.1,64.7,29.80,North,0,1.7,3.3,89,0.00,,,0.00,WUHU216HW,2013-07-01 16:05:00,
2013-07-01 12:10:00,68.3,64.9,29.80,NNW,338,0.2,2.9,89,0.00,,,0.00,WUHU216HW,2013-07-01 16:10:00,
2013-07-01 12:15:00,68.3,64.9,29.80,NNE,23,0.0,2.2,89,0.00,,,0.00,WUHU216HW,2013-07-01 16:15:00,
2013-07-01 12:20:00,68.5,65.1,29.80,NE,45,0.0,4.2,89,0.00,,,0.00,WUHU216HW,2013-07-01 16:20:00,
2013-07-01 12:25:00,68.5,65.1,29.80,NE,45,2.2,4.2,89,0.00,,,0.00,WUHU216HW,2013-07-01 16:25:00,
2013-07-01 12:30:00,68.5,65.1,29.80,NNW,338,1.1,2.2,89,0.00,,,0.00,WUHU216HW,2013-07-01 16:30:00,
2013-07-01 12:35:00,68.7,65.3,29.81,ENE,68,0.8,2.9,89,0.00,,,0.00,WUHU216HW,2013-07-01 16:35:00,
2013-07-01 12:45:00,68.7,65.3,29.80,NNW,338,3.3,3.3,89,0.00,,,0.00,WUHU216HW,2013-07-01 16:45:00,
2013-07-01 12:50:00,68.9,65.4,29.81,ENE,68,0.2,3.3,89,0.00,,,0.00,WUHU216HW,2013-07-01 16:50:00,
2013-07-01 12:55:00,69.0,65.6,29.81,ENE,68,2.6,4.2,89,0.00,,,0.00,WUHU216HW,2013-07-01 16:55:00,
2013-07-01 13:00:00,69.4,66.0,29.81,ENE,68,2.2,4.2,89,0.00,,,0.00,WUHU216HW,2013-07-01 17:00:00,
2013-07-01 13:05:00,69.6,66.2,29.80,ENE,68,3.5,5.1,89,0.00,,,0.00,WUHU216HW,2013-07-01 17:05:00,
2013-07-01 13:10:00,69.9,66.5,29.81,NNW,338,4.4,6.2,89,0.00,,,0.00,WUHU216HW,2013-07-01 17:10:00,
2013-07-01 13:15:00,70.3,66.5,29.81,ESE,113,2.9,6.2,88,0.00,,,0.00,WUHU216HW,2013-07-01 17:15:00,
2013-07-01 13:20:00,70.1,66.4,29.81,NNE,23,5.8,5.8,88,0.00,,,0.00,WUHU216HW,2013-07-01 17:20:00,
2013-07-01 13:25:00,70.1,66.4,29.81,NNE,23,5.8,5.8,88,0.00,,,0.00,WUHU216HW,2013-07-01 17:25:00,
2013-07-01 13:30:00,69.9,65.8,29.80,NNE,23,11.4,11.4,87,0.00,,,0.00,WUHU216HW,2013-07-01 17:30:00,
2013-07-01 13:35:00,69.8,65.7,29.80,WNW,293,5.5,11.4,87,0.00,,,0.00,WUHU216HW,2013-07-01 17:35:00,
2013-07-01 13:40:00,69.6,65.8,29.80,NNW,338,6.4,7.1,88,0.02,,,0.00,WUHU216HW,2013-07-01 17:40:00,
2013-07-01 13:45:00,69.8,66.0,29.80,NE,45,0.0,6.4,88,0.02,,,0.02,WUHU216HW,2013-07-01 17:45:00,
2013-07-01 13:50:00,69.6,65.8,29.80,NNW,338,2.4,2.6,88,0.02,,,0.02,WUHU216HW,2013-07-01 17:50:00,
2013-07-01 13:55:00,69.8,66.0,29.80,NE,45,1.5,4.4,88,0.02,,,0.02,WUHU216HW,2013-07-01 17:55:00,
2013-07-01 14:00:00,69.8,66.0,29.80,NE,45,4.0,4.4,88,0.02,,,0.02,WUHU216HW,2013-07-01 18:00:00,
2013-07-01 14:05:00,69.9,66.5,29.80,WNW,293,2.9,4.0,89,0.02,,,0.02,WUHU216HW,2013-07-01 18:05:00,
2013-07-01 14:10:00,70.1,66.7,29.80,NW,315,1.3,4.6,89,0.02,,,0.02,WUHU216HW,2013-07-01 18:10:00,
2013-07-01 14:15:00,70.3,66.9,29.80,NNW,338,4.2,4.6,89,0.02,,,0.02,WUHU216HW,2013-07-01 18:15:00,
2013-07-01 14:20:00,70.5,66.7,29.79,NE,45,2.0,4.2,88,0.02,,,0.02,WUHU216HW,2013-07-01 18:20:00,
2013-07-01 14:25:00,70.7,66.9,29.79,NNW,338,0.0,4.2,88,0.02,,,0.02,WUHU216HW,2013-07-01 18:25:00,
2013-07-01 14:30:00,70.8,67.1,29.79,NNW,338,5.3,5.3,88,0.02,,,0.02,WUHU216HW,2013-07-01 18:30:00,
2013-07-01 14:35:00,71.2,67.4,29.79,NE,45,0.0,5.3,88,0.02,,,0.02,WUHU216HW,2013-07-01 18:35:00,
2013-07-01 14:40:00,71.2,67.1,29.79,North,0,2.9,4.4,87,0.00,,,0.02,WUHU216HW,2013-07-01 18:40:00,
2013-07-01 14:45:00,71.4,67.3,29.79,ENE,68,1.7,2.9,87,0.00,,,0.02,WUHU216HW,2013-07-01 18:45:00,
2013-07-01 14:50:00,71.2,67.1,29.79,NNE,23,3.8,3.8,87,0.00,,,0.02,WUHU216HW,2013-07-01 18:50:00,
2013-07-01 14:55:00,71.2,67.1,29.80,North,0,1.1,3.8,87,0.00,,,0.02,WUHU216HW,2013-07-01 18:55:00,
2013-07-01 15:00:00,71.2,66.6,29.79,NE,45,0.8,3.8,86,0.00,,,0.02,WUHU216HW,2013-07-01 19:00:00,
2013-07-01 15:05:00,70.8,66.4,29.79,NNE,23,1.5,1.7,86,0.00,,,0.02,WUHU216HW,2013-07-01 19:05:00,
2013-07-01 15:10:00,70.8,66.4,29.80,NNE,23,0.0,1.5,86,0.00,,,0.02,WUHU216HW,2013-07-01 19:10:00,
2013-07-01 15:15:00,70.8,66.7,29.80,NE,45,0.0,1.5,87,0.00,,,0.02,WUHU216HW,2013-07-01 19:15:00,
2013-07-01 15:20:00,71.2,67.1,29.79,NNE,23,0.0,3.5,87,0.00,,,0.02,WUHU216HW,2013-07-01 19:20:00,
2013-07-01 15:25:00,71.2,66.8,29.79,NNW,338,2.0,3.5,86,0.00,,,0.02,WUHU216HW,2013-07-01 19:25:00,
2013-07-01 15:30:00,71.2,66.8,29.79,NW,315,8.9,8.9,86,0.00,,,0.02,WUHU216HW,2013-07-01 19:30:00,
2013-07-01 15:35:00,71.2,66.8,29.79,NNW,338,3.3,8.9,86,0.00,,,0.02,WUHU216HW,2013-07-01 19:35:00,
2013-07-01 15:40:00,71.2,66.8,29.80,NW,315,6.7,8.9,86,0.00,,,0.02,WUHU216HW,2013-07-01 19:40:00,
2013-07-01 15:45:00,71.2,66.4,29.79,NNE,23,3.8,6.7,85,0.00,,,0.02,WUHU216HW,2013-07-01 19:45:00,
2013-07-01 15:50:00,71.2,66.4,29.79,NNE,23,0.0,3.8,85,0.00,,,0.02,WUHU216HW,2013-07-01 19:50:00,
2013-07-01 15:55:00,71.2,66.4,29.79,North,0,3.3,4.6,85,0.00,,,0.02,WUHU216HW,2013-07-01 19:55:00,
2013-07-01 16:00:00,70.8,66.4,29.79,NW,315,0.0,6.0,85,0.00,,,0.02,WUHU216HW,2013-07-01 20:00:00,
2013-07-01 16:05:00,70.8,66.4,29.80,NNW,338,5.3,6.0,86,0.00,,,0.02,WUHU216HW,2013-07-01 20:05:00,
2013-07-01 16:10:00,70.8,66.4,29.80,NE,45,0.0,5.8,86,0.00,,,0.02,WUHU216HW,2013-07-01 20:10:00,
2013-07-01 16:15:00,70.8,66.4,29.80,NNW,338,4.9,5.3,86,0.00,,,0.02,WUHU216HW,2013-07-01 20:15:00,
2013-07-01 16:20:00,70.7,66.2,29.80,NNW,338,3.5,4.9,86,0.00,,,0.02,WUHU216HW,2013-07-01 20:20:00,
2013-07-01 16:25:00,70.7,66.2,29.80,North,0,0.2,4.9,86,0.00,,,0.02,WUHU216HW,2013-07-01 20:25:00,
2013-07-01 16:30:00,70.7,66.2,29.80,NNE,23,2.4,6.4,86,0.00,,,0.02,WUHU216HW,2013-07-01 20:30:00,
2013-07-01 16:35:00,70.5,66.0,29.80,NW,315,0.0,6.4,86,0.00,,,0.02,WUHU216HW,2013-07-01 20:35:00,
2013-07-01 16:40:00,70.5,66.0,29.79,NE,45,0.0,4.0,86,0.00,,,0.02,WUHU216HW,2013-07-01 20:40:00,
2013-07-01 16:45:00,70.5,66.0,29.79,NNE,23,6.4,6.4,86,0.00,,,0.02,WUHU216HW,2013-07-01 20:45:00,
2013-07-01 16:50:00,70.3,65.9,29.79,NNE,23,0.0,6.4,86,0.00,,,0.02,WUHU216HW,2013-07-01 20:50:00,
2013-07-01 16:55:00,70.1,65.7,29.79,NNE,23,5.3,5.3,86,0.00,,,0.02,WUHU216HW,2013-07-01 20:55:00,
2013-07-01 17:00:00,70.1,65.7,29.79,NW,315,0.0,5.3,86,0.00,,,0.02,WUHU216HW,2013-07-01 21:00:00,
2013-07-01 17:05:00,69.9,65.5,29.80,ENE,68,1.5,1.5,86,0.00,,,0.02,WUHU216HW,2013-07-01 21:05:00,
2013-07-01 17:10:00,69.9,65.5,29.80,NNE,23,2.0,3.1,86,0.00,,,0.02,WUHU216HW,2013-07-01 21:10:00,
2013-07-01 17:15:00,69.8,65.3,29.80,SE,135,0.0,3.1,86,0.00,,,0.02,WUHU216HW,2013-07-01 21:15:00,
2013-07-01 17:20:00,69.8,65.7,29.79,NNE,23,0.2,3.3,87,0.00,,,0.02,WUHU216HW,2013-07-01 21:20:00,
2013-07-01 17:30:00,69.6,65.5,29.79,NW,315,0.0,5.3,87,0.00,,,0.02,WUHU216HW,2013-07-01 21:30:00,
2013-07-01 17:35:00,69.6,65.5,29.79,North,0,0.0,5.3,87,0.00,,,0.02,WUHU216HW,2013-07-01 21:35:00,
2013-07-01 17:40:00,69.6,65.5,29.80,NNE,23,1.3,1.7,87,0.00,,,0.02,WUHU216HW,2013-07-01 21:40:00,
2013-07-01 17:45:00,69.8,65.7,29.80,NNW,338,3.8,6.2,87,0.00,,,0.02,WUHU216HW,2013-07-01 21:45:00,
2013-07-01 17:50:00,69.6,65.5,29.79,NNW,338,1.1,6.2,87,0.00,,,0.02,WUHU216HW,2013-07-01 21:50:00,
2013-07-01 17:55:00,69.6,65.5,29.80,ESE,113,0.4,1.1,87,0.00,,,0.02,WUHU216HW,2013-07-01 21:55:00,
2013-07-01 18:00:00,69.6,65.5,29.80,ESE,113,2.0,2.0,87,0.00,,,0.02,WUHU216HW,2013-07-01 22:00:00,
2013-07-01 18:05:00,69.6,65.5,29.80,NNW,338,0.0,5.8,87,0.00,,,0.02,WUHU216HW,2013-07-01 22:05:00,
2013-07-01 18:10:00,69.9,65.8,29.80,NE,45,6.0,6.4,87,0.00,,,0.02,WUHU216HW,2013-07-01 22:10:00,
2013-07-01 18:15:00,69.9,65.8,29.80,North,0,4.4,8.5,87,0.00,,,0.02,WUHU216HW,2013-07-01 22:15:00,
2013-07-01 18:20:00,70.1,65.7,29.80,WNW,293,4.4,8.5,86,0.00,,,0.02,WUHU216HW,2013-07-01 22:20:00,
2013-07-01 18:25:00,70.1,65.7,29.80,North,0,0.0,4.4,86,0.00,,,0.02,WUHU216HW,2013-07-01 22:25:00,
2013-07-01 18:30:00,70.1,65.7,29.80,NNE,23,3.3,4.4,86,0.00,,,0.02,WUHU216HW,2013-07-01 22:30:00,
2013-07-01 18:36:00,70.1,65.7,29.80,ENE,68,1.5,5.3,86,0.00,,,0.02,WUHU216HW,2013-07-01 22:36:00,
2013-07-01 18:41:00,69.9,65.5,29.80,East,90,0.0,5.3,86,0.00,,,0.02,WUHU216HW,2013-07-01 22:41:00,
2013-07-01 18:46:00,70.1,65.7,29.79,NNE,23,9.3,9.3,86,0.00,,,0.02,WUHU216HW,2013-07-01 22:46:00,
2013-07-01 18:51:00,70.3,65.9,29.80,NNE,23,10.5,10.5,86,0.00,,,0.02,WUHU216HW,2013-07-01 22:51:00,
2013-07-01 18:56:00,70.5,66.4,29.79,NNE,23,3.3,10.5,87,0.00,,,0.02,WUHU216HW,2013-07-01 22:56:00,
2013-07-01 19:01:00,70.5,66.0,29.79,NNE,23,0.4,3.3,86,0.00,,,0.02,WUHU216HW,2013-07-01 23:01:00,
2013-07-01 19:06:00,70.3,65.9,29.79,NNE,23,0.0,4.0,86,0.00,,,0.02,WUHU216HW,2013-07-01 23:06:00,
2013-07-01 19:11:00,70.3,65.9,29.79,North,0,0.0,6.9,86,0.00,,,0.02,WUHU216HW,2013-07-01 23:11:00,
2013-07-01 19:16:00,70.3,65.9,29.80,NNE,23,0.0,6.9,86,0.00,,,0.02,WUHU216HW,2013-07-01 23:16:00,
2013-07-01 19:21:00,70.1,65.7,29.80,East,90,3.8,4.9,86,0.00,,,0.02,WUHU216HW,2013-07-01 23:21:00,
2013-07-01 19:26:00,70.1,65.7,29.80,NE,45,0.6,4.2,86,0.00,,,0.02,WUHU216HW,2013-07-01 23:26:00,
2013-07-01 19:31:00,70.1,65.7,29.80,ESE,113,2.0,4.2,86,0.00,,,0.02,WUHU216HW,2013-07-01 23:31:00,
2013-07-01 19:36:00,69.9,65.5,29.80,NE,45,0.6,2.9,86,0.00,,,0.02,WUHU216HW,2013-07-01 23:36:00,
2013-07-01 19:41:00,69.9,65.5,29.80,SE,135,0.0,2.9,86,0.00,,,0.02,WUHU216HW,2013-07-01 23:41:00,
2013-07-01 19:46:00,69.6,65.1,29.80,NNE,23,1.7,1.7,86,0.00,,,0.02,WUHU216HW,2013-07-01 23:46:00,
2013-07-01 19:51:00,69.6,65.1,29.80,NNE,23,3.3,3.3,86,0.00,,,0.02,WUHU216HW,2013-07-01 23:51:00,
2013-07-01 19:56:00,69.6,65.1,29.80,NE,45,0.0,3.3,86,0.00,,,0.02,WUHU216HW,2013-07-01 23:56:00,
2013-07-01 20:01:00,69.6,65.1,29.80,NNE,23,3.5,3.5,86,0.00,,,0.02,WUHU216HW,2013-07-02 00:01:00,
2013-07-01 20:06:00,69.6,65.1,29.80,NNE,23,6.0,6.0,86,0.00,,,0.02,WUHU216HW,2013-07-02 00:06:00,
2013-07-01 20:11:00,69.6,65.1,29.80,NE,45,0.8,6.0,86,0.00,,,0.02,WUHU216HW,2013-07-02 00:11:00,
2013-07-01 20:16:00,69.6,65.5,29.80,NNW,338,0.0,6.0,87,0.00,,,0.02,WUHU216HW,2013-07-02 00:16:00,
2013-07-01 20:21:00,69.6,65.5,29.80,NE,45,1.1,3.1,87,0.00,,,0.02,WUHU216HW,2013-07-02 00:21:00,
2013-07-01 20:26:00,69.6,65.5,29.80,North,0,0.0,2.6,87,0.00,,,0.02,WUHU216HW,2013-07-02 00:26:00,
2013-07-01 20:31:00,69.6,65.5,29.80,ESE,113,0.0,0.0,87,0.00,,,0.02,WUHU216HW,2013-07-02 00:31:00,
2013-07-01 20:36:00,69.6,65.5,29.81,North,0,0.0,0.0,87,0.00,,,0.02,WUHU216HW,2013-07-02 00:36:00,
2013-07-01 20:41:00,69.4,65.3,29.81,North,0,0.0,1.5,87,0.00,,,0.02,WUHU216HW,2013-07-02 00:41:00,
2013-07-01 20:46:00,69.4,65.3,29.81,NNW,338,3.3,4.4,87,0.00,,,0.02,WUHU216HW,2013-07-02 00:46:00,
2013-07-01 20:51:00,69.4,65.3,29.81,NNE,23,5.8,5.8,87,0.00,,,0.02,WUHU216HW,2013-07-02 00:51:00,
2013-07-01 20:56:00,69.4,65.3,29.82,North,0,4.9,5.8,87,0.00,,,0.02,WUHU216HW,2013-07-02 00:56:00,
2013-07-01 21:01:00,69.2,65.1,29.81,NE,45,1.1,5.8,87,0.00,,,0.02,WUHU216HW,2013-07-02 01:01:00,
2013-07-01 21:06:00,69.2,65.1,29.81,NNE,23,5.5,5.5,87,0.00,,,0.02,WUHU216HW,2013-07-02 01:06:00,
2013-07-01 21:11:00,69.0,65.0,29.82,ENE,68,0.0,5.5,87,0.00,,,0.02,WUHU216HW,2013-07-02 01:11:00,
2013-07-01 21:16:00,69.0,65.0,29.82,ESE,113,0.0,6.2,87,0.00,,,0.02,WUHU216HW,2013-07-02 01:16:00,
2013-07-01 21:21:00,68.9,64.8,29.82,SE,135,1.3,6.2,87,0.00,,,0.02,WUHU216HW,2013-07-02 01:21:00,
2013-07-01 21:26:00,68.7,64.6,29.82,North,0,1.7,1.7,87,0.00,,,0.02,WUHU216HW,2013-07-02 01:26:00,
2013-07-01 21:31:00,68.7,64.6,29.82,NNW,338,3.1,3.1,87,0.00,,,0.02,WUHU216HW,2013-07-02 01:31:00,
2013-07-01 21:36:00,68.7,64.6,29.83,NE,45,0.0,3.1,87,0.00,,,0.02,WUHU216HW,2013-07-02 01:36:00,
2013-07-01 21:41:00,68.7,64.6,29.83,NNW,338,2.0,6.7,87,0.00,,,0.02,WUHU216HW,2013-07-02 01:41:00,
2013-07-01 21:46:00,68.5,64.4,29.83,NNW,338,0.0,6.7,87,0.00,,,0.02,WUHU216HW,2013-07-02 01:46:00,
2013-07-01 21:51:00,68.5,64.4,29.82,NNE,23,2.2,5.3,87,0.00,,,0.02,WUHU216HW,2013-07-02 01:51:00,
2013-07-01 21:56:00,68.3,64.3,29.83,ESE,113,1.1,3.8,87,0.00,,,0.02,WUHU216HW,2013-07-02 01:56:00,
2013-07-01 22:01:00,68.3,64.3,29.83,SSE,158,0.0,2.6,87,0.00,,,0.02,WUHU216HW,2013-07-02 02:01:00,
2013-07-01 22:06:00,68.1,64.1,29.83,ESE,113,0.0,2.6,87,0.00,,,0.02,WUHU216HW,2013-07-02 02:06:00,
2013-07-01 22:11:00,68.1,64.1,29.83,ESE,113,0.0,0.0,87,0.00,,,0.02,WUHU216HW,2013-07-02 02:11:00,
2013-07-01 22:16:00,68.1,64.1,29.83,North,0,0.0,2.6,87,0.00,,,0.02,WUHU216HW,2013-07-02 02:16:00,
2013-07-01 22:21:00,68.0,63.9,29.83,SSE,158,0.0,2.6,87,0.00,,,0.02,WUHU216HW,2013-07-02 02:21:00,
2013-07-01 22:26:00,67.8,63.7,29.83,ESE,113,0.0,0.0,87,0.00,,,0.02,WUHU216HW,2013-07-02 02:26:00,
2013-07-01 22:31:00,67.8,63.7,29.83,ESE,113,0.0,0.0,87,0.00,,,0.02,WUHU216HW,2013-07-02 02:31:00,
2013-07-01 22:41:00,67.8,63.7,29.83,NE,45,1.1,2.6,87,0.00,,,0.02,WUHU216HW,2013-07-02 02:41:00,
2013-07-01 22:46:00,67.8,63.7,29.83,NE,45,2.0,2.6,87,0.00,,,0.02,WUHU216HW,2013-07-02 02:46:00,
2013-07-01 22:51:00,67.8,63.7,29.83,NE,45,0.4,2.0,87,0.00,,,0.02,WUHU216HW,2013-07-02 02:51:00,
2013-07-01 22:56:00,67.6,63.6,29.83,NE,45,0.0,2.0,87,0.00,,,0.02,WUHU216HW,2013-07-02 02:56:00,
2013-07-01 23:01:00,67.6,63.6,29.83,ENE,68,0.0,1.3,87,0.00,,,0.02,WUHU216HW,2013-07-02 03:01:00,
2013-07-01 23:06:00,67.6,63.6,29.83,NE,45,0.0,0.0,87,0.00,,,0.02,WUHU216HW,2013-07-02 03:06:00,
2013-07-01 23:11:00,67.6,63.6,29.83,NE,45,0.0,0.0,87,0.00,,,0.02,WUHU216HW,2013-07-02 03:11:00,
2013-07-01 23:16:00,67.4,63.7,29.83,North,0,0.0,0.0,88,0.00,,,0.02,WUHU216HW,2013-07-02 03:16:00,
2013-07-01 23:21:00,67.4,63.7,29.83,North,0,0.0,0.0,88,0.00,,,0.02,WUHU216HW,2013-07-02 03:21:00,
2013-07-01 23:26:00,67.4,63.7,29.83,NNE,23,0.0,0.4,88,0.00,,,0.02,WUHU216HW,2013-07-02 03:26:00,
2013-07-01 23:31:00,67.4,63.7,29.83,NE,45,0.0,0.4,88,0.00,,,0.02,WUHU216HW,2013-07-02 03:31:00,
2013-07-01 23:36:00,67.4,63.7,29.84,NE,45,0.0,0.0,88,0.00,,,0.02,WUHU216HW,2013-07-02 03:36:00,
2013-07-01 23:41:00,67.4,63.7,29.84,East,90,0.0,1.1,88,0.00,,,0.02,WUHU216HW,2013-07-02 03:41:00,
2013-07-01 23:46:00,67.2,63.5,29.84,East,90,0.0,1.1,88,0.00,,,0.02,WUHU216HW,2013-07-02 03:46:00,
2013-07-01 23:51:00,67.4,63.7,29.84,NNE,23,3.5,3.5,88,0.00,,,0.02,WUHU216HW,2013-07-02 03:51:00,
2013-07-01 23:56:00,67.4,63.7,29.84,SW,225,0.0,3.5,88,0.00,,,0.02,WUHU216HW,2013-07-02 03:56:00,